Time,TemperatureF,DewpointF,PressureIn,WindDirection,WindDirectionDegrees,WindSpeedMPH,WindSpeedGustMPH,Humidity,HourlyPrecipIn,Conditions,Clouds,dailyrainin,SoftwareType,DateUTC
2013-01-29 00:00:00,43.2,31.0,27.33,SSW,202,0.0,3.3,60,0.00,,,0.00,Rainwise IP-100,2013-01-29 07:00:00,
2013-01-29 00:05:00,42.9,31.0,27.33,SW,225,0.0,4.4,61,0.00,,,0.00,Rainwise IP-100,2013-01-29 07:05:00,
2013-01-29 00:10:00,42.6,32.0,27.33,SW,225,1.9,4.2,63,0.00,,,0.00,Rainwise IP-100,2013-01-29 07:10:00,
2013-01-29 00:15:00,42.3,32.0,27.33,SSW,202,1.9,5.4,66,0.00,,,0.00,Rainwise IP-100,2013-01-29 07:15:00,
2013-01-29 00:20:00,42.0,32.0,27.33,SW,225,4.0,4.4,67,0.00,,,0.00,Rainwise IP-100,2013-01-29 07:20:00,
2013-01-29 00:25:00,41.8,32.0,27.33,SW,225,1.6,4.0,68,0.00,,,0.00,Rainwise IP-100,2013-01-29 07:25:00,
2013-01-29 00:30:00,41.5,33.0,27.33,SSW,202,0.0,6.1,69,0.00,,,0.00,Rainwise IP-100,2013-01-29 07:30:00,
2013-01-29 00:35:00,41.3,32.0,27.33,SSW,202,1.6,3.5,70,0.00,,,0.00,Rainwise IP-100,2013-01-29 07:35:00,
2013-01-29 00:40:00,41.1,32.0,27.33,SW,225,1.6,5.6,70,0.00,,,0.00,Rainwise IP-100,2013-01-29 07:40:00,
2013-01-29 00:45:00,41.0,32.0,27.34,WSW,247,1.2,3.5,70,0.00,,,0.00,Rainwise IP-100,2013-01-29 07:45:00,
2013-01-29 00:50:00,40.9,32.0,27.33,SSW,202,4.0,9.6,71,0.00,,,0.00,Rainwise IP-100,2013-01-29 07:50:00,
2013-01-29 00:55:00,40.6,33.0,27.33,South,180,3.0,5.1,74,0.00,,,0.00,Rainwise IP-100,2013-01-29 07:55:00,
2013-01-29 01:00:00,40.3,33.0,27.33,SSW,202,4.0,8.2,77,0.00,,,0.00,Rainwise IP-100,2013-01-29 08:00:00,
2013-01-29 01:05:00,40.1,35.0,27.34,SSE,157,1.9,8.9,78,0.00,,,0.00,Rainwise IP-100,2013-01-29 08:05:00,
2013-01-29 01:10:00,40.0,35.0,27.34,SSE,157,3.5,4.9,79,0.00,,,0.00,Rainwise IP-100,2013-01-29 08:10:00,
2013-01-29 01:15:00,39.8,35.0,27.33,South,180,2.3,7.2,79,0.00,,,0.00,Rainwise IP-100,2013-01-29 08:15:00,
2013-01-29 01:20:00,39.7,35.0,27.33,SSE,157,2.6,4.9,80,0.00,,,0.00,Rainwise IP-100,2013-01-29 08:20:00,
2013-01-29 01:25:00,39.7,35.0,27.34,SSW,202,1.2,5.4,80,0.00,,,0.00,Rainwise IP-100,2013-01-29 08:25:00,
2013-01-29 01:30:00,39.6,35.0,27.34,SSE,157,1.2,4.9,81,0.00,,,0.00,Rainwise IP-100,2013-01-29 08:30:00,
2013-01-29 01:35:00,39.6,35.0,27.34,SSE,157,0.0,3.5,81,0.00,,,0.00,Rainwise IP-100,2013-01-29 08:35:00,
2013-01-29 01:40:00,39.6,35.0,27.34,SSE,157,0.0,5.1,81,0.00,,,0.00,Rainwise IP-100,2013-01-29 08:40:00,
2013-01-29 01:45:00,39.7,36.0,27.34,SE,135,2.3,3.0,82,0.00,,,0.00,Rainwise IP-100,2013-01-29 08:45:00,
2013-01-29 01:50:00,39.7,36.0,27.34,SSE,157,1.4,5.8,82,0.00,,,0.00,Rainwise IP-100,2013-01-29 08:50:00,
2013-01-29 01:53:00,39.8,36.0,27.34,SSE,157,1.9,2.8,82,0.00,,,0.00,Rainwise IP-100,2013-01-29 08:53:00,
2013-01-29 01:58:00,39.7,35.0,27.34,South,180,1.6,5.6,81,0.00,,,0.00,Rainwise IP-100,2013-01-29 08:58:00,
2013-01-29 02:04:00,39.7,35.0,27.34,SSE,157,4.4,4.4,81,0.00,,,0.00,Rainwise IP-100,2013-01-29 09:04:00,
2013-01-29 02:09:00,39.7,35.0,27.33,SSE,157,3.5,4.9,80,0.00,,,0.00,Rainwise IP-100,2013-01-29 09:09:00,
2013-01-29 02:14:00,39.9,35.0,27.33,SSE,157,0.0,3.7,80,0.00,,,0.00,Rainwise IP-100,2013-01-29 09:14:00,
2013-01-29 02:19:00,40.0,35.0,27.33,SSE,157,0.0,0.0,79,0.00,,,0.00,Rainwise IP-100,2013-01-29 09:19:00,
2013-01-29 02:24:00,40.0,35.0,27.33,SSE,157,1.4,1.4,79,0.00,,,0.00,Rainwise IP-100,2013-01-29 09:24:00,
2013-01-29 02:29:00,39.8,35.0,27.33,SSE,157,0.0,2.6,80,0.00,,,0.00,Rainwise IP-100,2013-01-29 09:29:00,
2013-01-29 02:34:00,39.7,35.0,27.33,SSE,157,1.9,2.6,80,0.00,,,0.00,Rainwise IP-100,2013-01-29 09:34:00,
2013-01-29 02:39:00,39.7,35.0,27.33,SSE,157,1.6,3.5,81,0.00,,,0.00,Rainwise IP-100,2013-01-29 09:39:00,
2013-01-29 02:44:00,39.7,35.0,27.33,WSW,247,1.6,4.9,81,0.00,,,0.00,Rainwise IP-100,2013-01-29 09:44:00,
2013-01-29 02:49:00,39.7,35.0,27.34,SSW,202,1.6,3.7,80,0.00,,,0.00,Rainwise IP-100,2013-01-29 09:49:00,
2013-01-29 02:54:00,39.6,35.0,27.34,South,180,1.4,2.3,80,0.00,,,0.00,Rainwise IP-100,2013-01-29 09:54:00,
2013-01-29 02:59:00,39.5,35.0,27.33,South,180,0.0,3.0,80,0.00,,,0.00,Rainwise IP-100,2013-01-29 09:59:00,
2013-01-29 03:04:00,39.5,35.0,27.33,South,180,0.0,2.3,80,0.00,,,0.00,Rainwise IP-100,2013-01-29 10:04:00,
2013-01-29 03:09:00,39.4,33.0,27.34,South,180,2.3,2.3,81,0.00,,,0.00,Rainwise IP-100,2013-01-29 10:09:00,
2013-01-29 03:14:00,39.3,33.0,27.34,South,180,1.6,2.8,81,0.00,,,0.00,Rainwise IP-100,2013-01-29 10:14:00,
2013-01-29 03:19:00,39.2,33.0,27.34,SSW,202,0.0,4.4,81,0.00,,,0.00,Rainwise IP-100,2013-01-29 10:19:00,
2013-01-29 03:24:00,39.2,35.0,27.34,WSW,247,0.0,2.3,82,0.00,,,0.00,Rainwise IP-100,2013-01-29 10:24:00,
2013-01-29 03:29:00,39.2,35.0,27.34,SSW,202,1.6,5.4,82,0.00,,,0.00,Rainwise IP-100,2013-01-29 10:29:00,
2013-01-29 03:34:00,39.2,33.0,27.34,SW,225,1.9,3.7,81,0.00,,,0.00,Rainwise IP-100,2013-01-29 10:34:00,
2013-01-29 03:39:00,39.2,33.0,27.35,SW,225,0.0,4.0,81,0.00,,,0.00,Rainwise IP-100,2013-01-29 10:39:00,
2013-01-29 03:44:00,39.3,33.0,27.34,SW,225,0.0,4.7,81,0.00,,,0.00,Rainwise IP-100,2013-01-29 10:44:00,
2013-01-29 03:49:00,39.3,33.0,27.34,SW,225,2.1,6.5,81,0.00,,,0.00,Rainwise IP-100,2013-01-29 10:49:00,
2013-01-29 03:54:00,39.4,33.0,27.35,SW,225,1.4,6.1,80,0.00,,,0.00,Rainwise IP-100,2013-01-29 10:54:00,
2013-01-29 03:59:00,39.5,35.0,27.35,SW,225,2.1,5.8,80,0.00,,,0.00,Rainwise IP-100,2013-01-29 10:59:00,
2013-01-29 04:04:00,39.5,35.0,27.35,South,180,1.4,5.8,80,0.00,,,0.00,Rainwise IP-100,2013-01-29 11:04:00,
2013-01-29 04:09:00,39.5,35.0,27.34,SSW,202,1.4,6.1,81,0.00,,,0.00,Rainwise IP-100,2013-01-29 11:09:00,
2013-01-29 04:14:00,39.5,35.0,27.34,SW,225,4.0,4.7,80,0.00,,,0.00,Rainwise IP-100,2013-01-29 11:14:00,
2013-01-29 04:19:00,39.5,35.0,27.35,SW,225,3.7,6.1,80,0.00,,,0.00,Rainwise IP-100,2013-01-29 11:19:00,
2013-01-29 04:24:00,39.6,35.0,27.35,SSW,202,0.0,7.5,79,0.00,,,0.00,Rainwise IP-100,2013-01-29 11:24:00,
2013-01-29 04:29:00,39.7,35.0,27.34,SSW,202,3.0,9.1,79,0.00,,,0.00,Rainwise IP-100,2013-01-29 11:29:00,
2013-01-29 04:34:00,39.6,35.0,27.34,WNW,292,3.5,7.2,79,0.00,,,0.00,Rainwise IP-100,2013-01-29 11:34:00,
2013-01-29 04:39:00,39.5,35.0,27.35,WSW,247,4.4,6.8,79,0.00,,,0.00,Rainwise IP-100,2013-01-29 11:39:00,
2013-01-29 04:44:00,39.4,33.0,27.35,SSW,202,5.8,5.8,79,0.00,,,0.00,Rainwise IP-100,2013-01-29 11:44:00,
2013-01-29 04:49:00,39.3,33.0,27.35,WSW,247,4.7,7.9,79,0.00,,,0.00,Rainwise IP-100,2013-01-29 11:49:00,
2013-01-29 04:54:00,39.2,33.0,27.35,SW,225,2.3,7.9,78,0.00,,,0.00,Rainwise IP-100,2013-01-29 11:54:00,
2013-01-29 04:59:00,39.1,33.0,27.35,SSW,202,3.7,6.5,78,0.00,,,0.00,Rainwise IP-100,2013-01-29 11:59:00,
2013-01-29 05:04:00,38.8,33.0,27.35,SW,225,3.0,6.3,79,0.00,,,0.00,Rainwise IP-100,2013-01-29 12:04:00,
2013-01-29 05:09:00,38.5,33.0,27.35,SW,225,1.9,10.7,79,0.00,,,0.00,Rainwise IP-100,2013-01-29 12:09:00,
2013-01-29 05:14:00,38.3,32.0,27.35,SSW,202,3.7,6.8,79,0.00,,,0.00,Rainwise IP-100,2013-01-29 12:14:00,
2013-01-29 05:19:00,38.3,32.0,27.35,SW,225,2.6,8.2,79,0.00,,,0.00,Rainwise IP-100,2013-01-29 12:19:00,
2013-01-29 05:24:00,38.2,32.0,27.35,SSW,202,4.4,7.7,78,0.00,,,0.00,Rainwise IP-100,2013-01-29 12:24:00,
2013-01-29 05:29:00,38.1,32.0,27.35,SSW,202,2.3,7.0,78,0.00,,,0.00,Rainwise IP-100,2013-01-29 12:29:00,
2013-01-29 05:34:00,38.0,32.0,27.36,SSW,202,4.2,6.8,78,0.00,,,0.00,Rainwise IP-100,2013-01-29 12:34:00,
2013-01-29 05:39:00,37.8,32.0,27.36,SSW,202,2.6,6.5,78,0.00,,,0.00,Rainwise IP-100,2013-01-29 12:39:00,
2013-01-29 05:44:00,37.8,32.0,27.35,SW,225,2.3,7.5,78,0.00,,,0.00,Rainwise IP-100,2013-01-29 12:44:00,
2013-01-29 05:49:00,37.7,32.0,27.35,WSW,247,2.1,6.1,78,0.00,,,0.00,Rainwise IP-100,2013-01-29 12:49:00,
2013-01-29 05:54:00,37.5,32.0,27.36,WSW,247,2.6,5.6,78,0.00,,,0.00,Rainwise IP-100,2013-01-29 12:54:00,
2013-01-29 05:59:00,37.4,31.0,27.36,WSW,247,1.2,7.2,78,0.00,,,0.00,Rainwise IP-100,2013-01-29 12:59:00,
2013-01-29 06:04:00,37.4,31.0,27.36,SW,225,1.4,7.2,78,0.00,,,0.00,Rainwise IP-100,2013-01-29 13:04:00,
2013-01-29 06:09:00,37.3,31.0,27.36,West,270,2.1,7.7,78,0.00,,,0.00,Rainwise IP-100,2013-01-29 13:09:00,
2013-01-29 06:14:00,37.2,31.0,27.36,SW,225,1.9,6.1,79,0.00,,,0.00,Rainwise IP-100,2013-01-29 13:14:00,
2013-01-29 06:19:00,37.1,31.0,27.36,WSW,247,3.3,5.8,79,0.00,,,0.00,Rainwise IP-100,2013-01-29 13:19:00,
2013-01-29 06:24:00,37.0,31.0,27.36,WSW,247,3.0,5.8,79,0.00,,,0.00,Rainwise IP-100,2013-01-29 13:24:00,
2013-01-29 06:29:00,36.8,31.0,27.36,WSW,247,2.6,5.4,79,0.00,,,0.00,Rainwise IP-100,2013-01-29 13:29:00,
2013-01-29 06:34:00,36.6,31.0,27.36,SW,225,2.3,5.4,79,0.00,,,0.00,Rainwise IP-100,2013-01-29 13:34:00,
2013-01-29 06:39:00,36.5,32.0,27.37,WSW,247,1.6,8.4,80,0.00,,,0.00,Rainwise IP-100,2013-01-29 13:39:00,
2013-01-29 06:44:00,36.4,31.0,27.37,WSW,247,4.7,7.0,80,0.00,,,0.00,Rainwise IP-100,2013-01-29 13:44:00,
2013-01-29 06:49:00,36.4,31.0,27.37,WSW,247,3.3,6.5,80,0.00,,,0.00,Rainwise IP-100,2013-01-29 13:49:00,
2013-01-29 06:54:00,36.4,31.0,27.38,SSW,202,4.4,9.8,79,0.00,,,0.00,Rainwise IP-100,2013-01-29 13:54:00,
2013-01-29 06:59:00,36.4,31.0,27.38,WSW,247,1.9,8.4,79,0.00,,,0.00,Rainwise IP-100,2013-01-29 13:59:00,
2013-01-29 07:04:00,36.4,31.0,27.38,West,270,1.4,6.1,79,0.00,,,0.00,Rainwise IP-100,2013-01-29 14:04:00,
2013-01-29 07:09:00,36.4,31.0,27.39,WSW,247,6.5,7.2,79,0.00,,,0.00,Rainwise IP-100,2013-01-29 14:09:00,
2013-01-29 07:14:00,36.4,29.0,27.39,WSW,247,2.1,9.3,78,0.00,,,0.00,Rainwise IP-100,2013-01-29 14:14:00,
2013-01-29 07:19:00,36.3,29.0,27.38,SW,225,4.4,6.3,78,0.00,,,0.00,Rainwise IP-100,2013-01-29 14:19:00,
2013-01-29 07:24:00,36.1,29.0,27.38,SSW,202,5.6,5.6,78,0.00,,,0.00,Rainwise IP-100,2013-01-29 14:24:00,
2013-01-29 07:29:00,36.1,29.0,27.39,SW,225,2.1,5.8,78,0.00,,,0.00,Rainwise IP-100,2013-01-29 14:29:00,
2013-01-29 07:34:00,36.0,29.0,27.39,SW,225,1.6,5.6,78,0.00,,,0.00,Rainwise IP-100,2013-01-29 14:34:00,
2013-01-29 07:39:00,35.8,31.0,27.39,WSW,247,2.8,5.4,79,0.00,,,0.00,Rainwise IP-100,2013-01-29 14:39:00,
2013-01-29 07:44:00,35.7,31.0,27.39,WSW,247,1.6,4.7,79,0.00,,,0.00,Rainwise IP-100,2013-01-29 14:44:00,
2013-01-29 07:49:00,35.6,31.0,27.39,WSW,247,1.9,5.6,79,0.00,,,0.00,Rainwise IP-100,2013-01-29 14:49:00,
2013-01-29 07:54:00,35.6,31.0,27.39,WSW,247,2.8,5.4,80,0.00,,,0.00,Rainwise IP-100,2013-01-29 14:54:00,
2013-01-29 07:59:00,35.6,31.0,27.39,WSW,247,2.3,4.2,80,0.00,,,0.00,Rainwise IP-100,2013-01-29 14:59:00,
2013-01-29 08:04:00,36.0,31.0,27.39,WSW,247,1.9,5.6,79,0.00,,,0.00,Rainwise IP-100,2013-01-29 15:04:00,
2013-01-29 08:09:00,36.7,31.0,27.40,SSW,202,3.0,7.5,78,0.00,,,0.00,Rainwise IP-100,2013-01-29 15:09:00,
2013-01-29 08:14:00,37.2,31.0,27.40,WSW,247,2.8,6.5,77,0.00,,,0.00,Rainwise IP-100,2013-01-29 15:14:00,
2013-01-29 08:19:00,37.8,31.0,27.40,SW,225,4.7,6.1,75,0.00,,,0.00,Rainwise IP-100,2013-01-29 15:19:00,
2013-01-29 08:24:00,38.3,31.0,27.41,SSW,202,1.6,9.1,74,0.00,,,0.00,Rainwise IP-100,2013-01-29 15:24:00,
2013-01-29 08:29:00,38.7,32.0,27.41,WSW,247,2.1,6.5,74,0.00,,,0.00,Rainwise IP-100,2013-01-29 15:29:00,
2013-01-29 08:34:00,39.1,32.0,27.41,WSW,247,2.6,7.5,73,0.00,,,0.00,Rainwise IP-100,2013-01-29 15:34:00,
2013-01-29 08:39:00,39.5,32.0,27.41,WSW,247,3.5,6.8,71,0.00,,,0.00,Rainwise IP-100,2013-01-29 15:39:00,
2013-01-29 08:44:00,39.9,32.0,27.41,SSW,202,5.6,6.3,70,0.00,,,0.00,Rainwise IP-100,2013-01-29 15:44:00,
2013-01-29 08:49:00,40.1,31.0,27.41,SSW,202,2.8,7.9,69,0.00,,,0.00,Rainwise IP-100,2013-01-29 15:49:00,
2013-01-29 08:54:00,40.4,31.0,27.41,SSW,202,4.2,5.1,68,0.00,,,0.00,Rainwise IP-100,2013-01-29 15:54:00,
2013-01-29 08:59:00,40.9,31.0,27.41,WSW,247,3.3,9.1,66,0.00,,,0.00,Rainwise IP-100,2013-01-29 15:59:00,
2013-01-29 09:04:00,41.0,31.0,27.42,West,270,3.5,7.9,65,0.00,,,0.00,Rainwise IP-100,2013-01-29 16:04:00,
2013-01-29 09:09:00,41.2,31.0,27.41,SSW,202,3.0,7.9,64,0.00,,,0.00,Rainwise IP-100,2013-01-29 16:09:00,
2013-01-29 09:14:00,41.4,29.0,27.42,WSW,247,3.5,9.6,63,0.00,,,0.00,Rainwise IP-100,2013-01-29 16:14:00,
2013-01-29 09:19:00,41.6,31.0,27.42,WSW,247,2.3,10.3,62,0.00,,,0.00,Rainwise IP-100,2013-01-29 16:19:00,
2013-01-29 09:24:00,41.8,29.0,27.42,SW,225,4.0,10.3,61,0.00,,,0.00,Rainwise IP-100,2013-01-29 16:24:00,
2013-01-29 09:29:00,42.0,29.0,27.42,WSW,247,2.8,8.2,61,0.00,,,0.00,Rainwise IP-100,2013-01-29 16:29:00,
2013-01-29 09:34:00,42.2,29.0,27.42,WSW,247,2.1,8.2,60,0.00,,,0.00,Rainwise IP-100,2013-01-29 16:34:00,
2013-01-29 09:39:00,42.6,31.0,27.42,SSW,202,2.8,7.5,60,0.00,,,0.00,Rainwise IP-100,2013-01-29 16:39:00,
2013-01-29 09:44:00,43.2,29.0,27.42,West,270,0.0,7.7,58,0.00,,,0.00,Rainwise IP-100,2013-01-29 16:44:00,
2013-01-29 09:49:00,43.6,31.0,27.42,SW,225,4.0,10.7,57,0.00,,,0.00,Rainwise IP-100,2013-01-29 16:49:00,
2013-01-29 09:54:00,43.6,31.0,27.42,SSW,202,1.6,7.5,57,0.00,,,0.00,Rainwise IP-100,2013-01-29 16:54:00,
2013-01-29 09:59:00,43.9,31.0,27.42,SW,225,2.1,7.7,57,0.00,,,0.00,Rainwise IP-100,2013-01-29 16:59:00,
2013-01-29 10:04:00,44.4,31.0,27.43,WSW,247,1.6,7.7,57,0.00,,,0.00,Rainwise IP-100,2013-01-29 17:04:00,
2013-01-29 10:09:00,44.8,31.0,27.43,SSW,202,7.0,7.9,56,0.00,,,0.00,Rainwise IP-100,2013-01-29 17:09:00,
2013-01-29 10:14:00,45.1,31.0,27.43,SSW,202,3.7,7.7,55,0.00,,,0.00,Rainwise IP-100,2013-01-29 17:14:00,
2013-01-29 10:19:00,45.3,29.0,27.44,WSW,247,3.5,9.6,53,0.00,,,0.00,Rainwise IP-100,2013-01-29 17:19:00,
2013-01-29 10:24:00,45.3,29.0,27.44,SSW,202,5.4,6.1,52,0.00,,,0.00,Rainwise IP-100,2013-01-29 17:24:00,
2013-01-29 10:29:00,45.4,28.0,27.44,West,270,3.3,7.9,51,0.00,,,0.00,Rainwise IP-100,2013-01-29 17:29:00,
2013-01-29 10:34:00,45.6,28.0,27.44,SSW,202,4.0,7.0,49,0.00,,,0.00,Rainwise IP-100,2013-01-29 17:34:00,
2013-01-29 10:39:00,46.0,28.0,27.43,West,270,3.0,10.0,48,0.00,,,0.00,Rainwise IP-100,2013-01-29 17:39:00,
2013-01-29 10:44:00,46.2,28.0,27.43,SW,225,3.7,8.4,47,0.00,,,0.00,Rainwise IP-100,2013-01-29 17:44:00,
2013-01-29 10:49:00,46.6,28.0,27.43,SSW,202,1.4,8.4,47,0.00,,,0.00,Rainwise IP-100,2013-01-29 17:49:00,
2013-01-29 10:54:00,46.7,26.0,27.43,WSW,247,2.8,7.9,45,0.00,,,0.00,Rainwise IP-100,2013-01-29 17:54:00,
2013-01-29 10:59:00,46.7,26.0,27.43,WSW,247,2.1,8.9,44,0.00,,,0.00,Rainwise IP-100,2013-01-29 17:59:00,
2013-01-29 11:04:00,47.1,26.0,27.43,WSW,247,3.3,5.8,45,0.00,,,0.00,Rainwise IP-100,2013-01-29 18:04:00,
2013-01-29 11:09:00,47.3,28.0,27.43,WSW,247,2.1,7.5,44,0.00,,,0.00,Rainwise IP-100,2013-01-29 18:09:00,
2013-01-29 11:14:00,47.3,26.0,27.42,West,270,3.0,7.9,43,0.00,,,0.00,Rainwise IP-100,2013-01-29 18:14:00,
2013-01-29 11:19:00,47.4,26.0,27.42,West,270,6.3,9.3,42,0.00,,,0.00,Rainwise IP-100,2013-01-29 18:19:00,
2013-01-29 11:24:00,47.2,24.0,27.43,WSW,247,2.8,11.0,41,0.00,,,0.00,Rainwise IP-100,2013-01-29 18:24:00,
2013-01-29 11:29:00,47.3,26.0,27.43,SW,225,3.3,7.5,41,0.00,,,0.00,Rainwise IP-100,2013-01-29 18:29:00,
2013-01-29 11:34:00,47.6,26.0,27.43,WSW,247,3.7,8.2,41,0.00,,,0.00,Rainwise IP-100,2013-01-29 18:34:00,
2013-01-29 11:39:00,47.6,24.0,27.42,WSW,247,8.9,9.3,40,0.00,,,0.00,Rainwise IP-100,2013-01-29 18:39:00,
2013-01-29 11:44:00,47.4,26.0,27.43,WNW,292,3.0,8.9,41,0.00,,,0.00,Rainwise IP-100,2013-01-29 18:44:00,
2013-01-29 11:50:00,47.4,26.0,27.42,WSW,247,3.5,9.8,41,0.00,,,0.00,Rainwise IP-100,2013-01-29 18:50:00,
2013-01-29 11:55:00,47.5,24.0,27.42,West,270,3.7,9.6,40,0.00,,,0.00,Rainwise IP-100,2013-01-29 18:55:00,
2013-01-29 12:00:00,47.5,24.0,27.42,WSW,247,4.9,13.3,39,0.00,,,0.00,Rainwise IP-100,2013-01-29 19:00:00,
2013-01-29 12:05:00,47.4,24.0,27.42,WSW,247,3.0,12.4,38,0.00,,,0.00,Rainwise IP-100,2013-01-29 19:05:00,
2013-01-29 12:10:00,47.5,23.0,27.41,WSW,247,2.1,9.3,37,0.00,,,0.00,Rainwise IP-100,2013-01-29 19:10:00,
2013-01-29 12:15:00,48.1,24.0,27.41,WSW,247,4.7,9.1,37,0.00,,,0.00,Rainwise IP-100,2013-01-29 19:15:00,
2013-01-29 12:20:00,48.7,24.0,27.41,West,270,3.5,11.2,36,0.00,,,0.00,Rainwise IP-100,2013-01-29 19:20:00,
2013-01-29 12:25:00,49.0,23.0,27.41,WSW,247,5.4,11.9,35,0.00,,,0.00,Rainwise IP-100,2013-01-29 19:25:00,
2013-01-29 12:30:00,49.0,23.0,27.40,WSW,247,0.0,9.3,34,0.00,,,0.00,Rainwise IP-100,2013-01-29 19:30:00,
2013-01-29 12:35:00,48.8,23.0,27.40,NW,315,7.9,13.1,34,0.00,,,0.00,Rainwise IP-100,2013-01-29 19:35:00,
2013-01-29 12:40:00,48.6,23.0,27.40,SSW,202,1.4,11.9,34,0.00,,,0.00,Rainwise IP-100,2013-01-29 19:40:00,
2013-01-29 12:45:00,48.7,23.0,27.39,SW,225,4.4,8.2,34,0.00,,,0.00,Rainwise IP-100,2013-01-29 19:45:00,
2013-01-29 12:50:00,49.0,23.0,27.40,WSW,247,3.0,10.3,34,0.00,,,0.00,Rainwise IP-100,2013-01-29 19:50:00,
2013-01-29 12:55:00,49.1,23.0,27.40,West,270,6.1,13.8,34,0.00,,,0.00,Rainwise IP-100,2013-01-29 19:55:00,
2013-01-29 13:00:00,49.3,23.0,27.40,WSW,247,3.0,9.6,34,0.00,,,0.00,Rainwise IP-100,2013-01-29 20:00:00,
2013-01-29 13:05:00,49.4,23.0,27.40,WSW,247,3.5,7.9,33,0.00,,,0.00,Rainwise IP-100,2013-01-29 20:05:00,
2013-01-29 13:10:00,49.4,23.0,27.40,WSW,247,4.4,9.6,33,0.00,,,0.00,Rainwise IP-100,2013-01-29 20:10:00,
2013-01-29 13:15:00,49.6,23.0,27.40,WNW,292,2.3,9.6,33,0.00,,,0.00,Rainwise IP-100,2013-01-29 20:15:00,
2013-01-29 13:20:00,49.8,23.0,27.39,WNW,292,4.7,14.0,32,0.00,,,0.00,Rainwise IP-100,2013-01-29 20:20:00,
2013-01-29 13:25:00,49.4,21.0,27.39,WSW,247,4.0,11.9,31,0.00,,,0.00,Rainwise IP-100,2013-01-29 20:25:00,
2013-01-29 13:30:00,49.4,21.0,27.39,WSW,247,5.6,12.6,32,0.00,,,0.00,Rainwise IP-100,2013-01-29 20:30:00,
2013-01-29 13:35:00,50.0,23.0,27.38,WSW,247,4.2,9.1,32,0.00,,,0.00,Rainwise IP-100,2013-01-29 20:35:00,
2013-01-29 13:40:00,50.2,21.0,27.39,WSW,247,3.7,10.7,31,0.00,,,0.00,Rainwise IP-100,2013-01-29 20:40:00,
2013-01-29 13:45:00,50.2,21.0,27.39,West,270,5.6,13.1,30,0.00,,,0.00,Rainwise IP-100,2013-01-29 20:45:00,
2013-01-29 13:50:00,50.2,21.0,27.39,SW,225,4.9,11.7,30,0.00,,,0.00,Rainwise IP-100,2013-01-29 20:50:00,
2013-01-29 13:55:00,50.1,21.0,27.38,SW,225,3.7,11.2,30,0.00,,,0.00,Rainwise IP-100,2013-01-29 20:55:00,
2013-01-29 14:00:00,50.1,21.0,27.38,SSW,202,4.4,11.2,30,0.00,,,0.00,Rainwise IP-100,2013-01-29 21:00:00,
2013-01-29 14:05:00,50.0,21.0,27.38,West,270,7.7,12.4,30,0.00,,,0.00,Rainwise IP-100,2013-01-29 21:05:00,
2013-01-29 14:10:00,50.1,21.0,27.38,WSW,247,1.9,10.5,30,0.00,,,0.00,Rainwise IP-100,2013-01-29 21:10:00,
2013-01-29 14:15:00,50.1,21.0,27.37,WSW,247,4.0,10.0,30,0.00,,,0.00,Rainwise IP-100,2013-01-29 21:15:00,
2013-01-29 14:20:00,50.1,21.0,27.38,WNW,292,7.0,13.5,30,0.00,,,0.00,Rainwise IP-100,2013-01-29 21:20:00,
2013-01-29 14:25:00,50.0,21.0,27.38,WSW,247,1.4,13.1,31,0.00,,,0.00,Rainwise IP-100,2013-01-29 21:25:00,
2013-01-29 14:30:00,50.0,21.0,27.37,WSW,247,4.9,11.9,31,0.00,,,0.00,Rainwise IP-100,2013-01-29 21:30:00,
2013-01-29 14:35:00,50.0,21.0,27.37,WNW,292,7.5,12.4,31,0.00,,,0.00,Rainwise IP-100,2013-01-29 21:35:00,
2013-01-29 14:40:00,49.8,21.0,27.37,WSW,247,8.9,13.8,31,0.00,,,0.00,Rainwise IP-100,2013-01-29 21:40:00,
2013-01-29 14:45:00,49.8,21.0,27.36,WSW,247,6.1,10.7,31,0.00,,,0.00,Rainwise IP-100,2013-01-29 21:45:00,
2013-01-29 14:50:00,50.1,23.0,27.36,WNW,292,4.7,13.5,32,0.00,,,0.00,Rainwise IP-100,2013-01-29 21:50:00,
2013-01-29 14:55:00,50.6,21.0,27.37,WNW,292,5.4,11.4,31,0.00,,,0.00,Rainwise IP-100,2013-01-29 21:55:00,
2013-01-29 15:00:00,50.7,21.0,27.36,WSW,247,1.9,10.5,31,0.00,,,0.00,Rainwise IP-100,2013-01-29 22:00:00,
2013-01-29 15:05:00,50.8,21.0,27.36,West,270,6.8,13.8,30,0.00,,,0.00,Rainwise IP-100,2013-01-29 22:05:00,
2013-01-29 15:10:00,50.7,21.0,27.37,SW,225,10.0,12.1,30,0.00,,,0.00,Rainwise IP-100,2013-01-29 22:10:00,
2013-01-29 15:15:00,50.2,21.0,27.36,WNW,292,2.8,17.0,30,0.00,,,0.00,Rainwise IP-100,2013-01-29 22:15:00,
2013-01-29 15:20:00,50.3,21.0,27.36,WNW,292,11.2,13.1,30,0.00,,,0.00,Rainwise IP-100,2013-01-29 22:20:00,
2013-01-29 15:25:00,50.4,21.0,27.36,WNW,292,6.5,14.5,30,0.00,,,0.00,Rainwise IP-100,2013-01-29 22:25:00,
2013-01-29 15:30:00,50.1,21.0,27.36,WSW,247,4.2,11.9,30,0.00,,,0.00,Rainwise IP-100,2013-01-29 22:30:00,
2013-01-29 15:35:00,50.1,21.0,27.36,SW,225,3.7,8.6,30,0.00,,,0.00,Rainwise IP-100,2013-01-29 22:35:00,
2013-01-29 15:40:00,50.4,21.0,27.36,SSW,202,3.5,8.9,30,0.00,,,0.00,Rainwise IP-100,2013-01-29 22:40:00,
2013-01-29 15:45:00,50.7,21.0,27.36,WSW,247,3.0,12.4,30,0.00,,,0.00,Rainwise IP-100,2013-01-29 22:45:00,
2013-01-29 15:50:00,50.8,21.0,27.37,WSW,247,2.8,12.6,30,0.00,,,0.00,Rainwise IP-100,2013-01-29 22:50:00,
2013-01-29 15:55:00,50.8,21.0,27.37,West,270,3.3,8.4,30,0.00,,,0.00,Rainwise IP-100,2013-01-29 22:55:00,
2013-01-29 16:00:00,50.8,23.0,27.37,WSW,247,2.6,11.9,31,0.00,,,0.00,Rainwise IP-100,2013-01-29 23:00:00,
2013-01-29 16:05:00,50.8,23.0,27.37,SSW,202,3.5,12.4,31,0.00,,,0.00,Rainwise IP-100,2013-01-29 23:05:00,
2013-01-29 16:10:00,50.7,21.0,27.37,WNW,292,6.8,9.1,31,0.00,,,0.00,Rainwise IP-100,2013-01-29 23:10:00,
2013-01-29 16:15:00,50.6,21.0,27.37,WSW,247,4.4,13.1,30,0.00,,,0.00,Rainwise IP-100,2013-01-29 23:15:00,
2013-01-29 16:20:00,50.5,21.0,27.37,NW,315,7.5,13.8,30,0.00,,,0.00,Rainwise IP-100,2013-01-29 23:20:00,
2013-01-29 16:25:00,50.3,21.0,27.38,West,270,4.0,13.3,30,0.00,,,0.00,Rainwise IP-100,2013-01-29 23:25:00,
2013-01-29 16:30:00,50.1,21.0,27.38,WNW,292,7.0,12.4,30,0.00,,,0.00,Rainwise IP-100,2013-01-29 23:30:00,
2013-01-29 16:35:00,50.1,18.0,27.38,SW,225,4.9,14.2,29,0.00,,,0.00,Rainwise IP-100,2013-01-29 23:35:00,
2013-01-29 16:40:00,49.9,18.0,27.38,West,270,7.7,11.4,29,0.00,,,0.00,Rainwise IP-100,2013-01-29 23:40:00,
2013-01-29 16:45:00,49.6,18.0,27.39,SW,225,5.1,9.3,28,0.00,,,0.00,Rainwise IP-100,2013-01-29 23:45:00,
2013-01-29 16:50:00,49.5,18.0,27.39,SW,225,0.0,14.2,29,0.00,,,0.00,Rainwise IP-100,2013-01-29 23:50:00,
2013-01-29 16:55:00,49.2,18.0,27.38,WNW,292,6.1,13.1,29,0.00,,,0.00,Rainwise IP-100,2013-01-29 23:55:00,
2013-01-29 17:00:00,49.1,18.0,27.38,West,270,3.7,13.1,29,0.00,,,0.00,Rainwise IP-100,2013-01-30 00:00:00,
2013-01-29 17:05:00,49.0,18.0,27.38,WSW,247,2.1,13.8,29,0.00,,,0.00,Rainwise IP-100,2013-01-30 00:05:00,
2013-01-29 17:10:00,48.9,18.0,27.38,NW,315,7.7,12.1,29,0.00,,,0.00,Rainwise IP-100,2013-01-30 00:10:00,
2013-01-29 17:15:00,48.7,21.0,27.39,SSW,202,2.8,11.9,30,0.00,,,0.00,Rainwise IP-100,2013-01-30 00:15:00,
2013-01-29 17:20:00,48.5,21.0,27.39,WSW,247,2.6,7.9,30,0.00,,,0.00,Rainwise IP-100,2013-01-30 00:20:00,
2013-01-29 17:25:00,48.2,18.0,27.39,WNW,292,8.4,8.4,30,0.00,,,0.00,Rainwise IP-100,2013-01-30 00:25:00,
2013-01-29 17:30:00,47.8,21.0,27.39,WNW,292,5.6,13.1,31,0.00,,,0.00,Rainwise IP-100,2013-01-30 00:30:00,
2013-01-29 17:35:00,47.4,18.0,27.39,SW,225,1.6,9.6,31,0.00,,,0.00,Rainwise IP-100,2013-01-30 00:35:00,
2013-01-29 17:40:00,47.2,18.0,27.39,West,270,3.0,8.9,32,0.00,,,0.00,Rainwise IP-100,2013-01-30 00:40:00,
2013-01-29 17:45:00,46.9,18.0,27.40,WSW,247,2.1,7.7,32,0.00,,,0.00,Rainwise IP-100,2013-01-30 00:45:00,
2013-01-29 17:50:00,46.7,21.0,27.39,West,270,1.9,5.1,33,0.00,,,0.00,Rainwise IP-100,2013-01-30 00:50:00,
2013-01-29 17:55:00,46.4,21.0,27.40,WNW,292,3.5,5.1,34,0.00,,,0.00,Rainwise IP-100,2013-01-30 00:55:00,
2013-01-29 18:00:00,46.2,21.0,27.41,WNW,292,1.9,9.3,34,0.00,,,0.00,Rainwise IP-100,2013-01-30 01:00:00,
2013-01-29 18:05:00,46.2,21.0,27.41,West,270,4.7,7.9,35,0.00,,,0.00,Rainwise IP-100,2013-01-30 01:05:00,
2013-01-29 18:10:00,46.1,21.0,27.41,NNW,337,2.8,11.2,35,0.00,,,0.00,Rainwise IP-100,2013-01-30 01:10:00,
2013-01-29 18:15:00,46.3,21.0,27.41,WNW,292,2.8,12.6,34,0.00,,,0.00,Rainwise IP-100,2013-01-30 01:15:00,
2013-01-29 18:20:00,46.3,21.0,27.41,NNW,337,3.7,4.9,34,0.00,,,0.00,Rainwise IP-100,2013-01-30 01:20:00,
2013-01-29 18:25:00,46.1,21.0,27.42,SW,225,1.6,4.9,34,0.00,,,0.00,Rainwise IP-100,2013-01-30 01:25:00,
2013-01-29 18:30:00,45.7,21.0,27.42,SW,225,0.0,3.0,35,0.00,,,0.00,Rainwise IP-100,2013-01-30 01:30:00,
2013-01-29 18:35:00,45.3,21.0,27.42,SW,225,0.0,0.0,36,0.00,,,0.00,Rainwise IP-100,2013-01-30 01:35:00,
2013-01-29 18:40:00,44.6,21.0,27.41,SW,225,0.0,0.0,37,0.00,,,0.00,Rainwise IP-100,2013-01-30 01:40:00,
2013-01-29 18:45:00,43.8,21.0,27.42,SW,225,0.0,1.2,38,0.00,,,0.00,Rainwise IP-100,2013-01-30 01:45:00,
2013-01-29 18:50:00,43.2,21.0,27.42,SW,225,0.0,1.4,39,0.00,,,0.00,Rainwise IP-100,2013-01-30 01:50:00,
2013-01-29 18:55:00,42.6,23.0,27.42,SW,225,0.0,0.0,42,0.00,,,0.00,Rainwise IP-100,2013-01-30 01:55:00,
2013-01-29 19:00:00,41.9,23.0,27.43,SW,225,0.0,0.0,44,0.00,,,0.00,Rainwise IP-100,2013-01-30 02:00:00,
2013-01-29 19:05:00,41.2,23.0,27.43,SW,225,0.0,0.0,45,0.00,,,0.00,Rainwise IP-100,2013-01-30 02:05:00,
2013-01-29 19:10:00,40.7,23.0,27.43,WNW,292,5.4,5.4,45,0.00,,,0.00,Rainwise IP-100,2013-01-30 02:10:00,
2013-01-29 19:15:00,41.0,21.0,27.44,West,270,0.0,6.5,44,0.00,,,0.00,Rainwise IP-100,2013-01-30 02:15:00,
2013-01-29 19:20:00,41.8,23.0,27.44,West,270,0.0,0.0,44,0.00,,,0.00,Rainwise IP-100,2013-01-30 02:20:00,
2013-01-29 19:25:00,41.6,23.0,27.44,West,270,0.0,0.0,45,0.00,,,0.00,Rainwise IP-100,2013-01-30 02:25:00,
2013-01-29 19:30:00,41.1,23.0,27.44,SSW,202,0.0,1.9,46,0.00,,,0.00,Rainwise IP-100,2013-01-30 02:30:00,
2013-01-29 19:35:00,40.8,23.0,27.44,SSW,202,0.0,0.0,46,0.00,,,0.00,Rainwise IP-100,2013-01-30 02:35:00,
2013-01-29 19:40:00,40.8,23.0,27.44,SSW,202,0.0,1.9,46,0.00,,,0.00,Rainwise IP-100,2013-01-30 02:40:00,
2013-01-29 19:45:00,40.8,23.0,27.44,SSW,202,0.0,0.0,46,0.00,,,0.00,Rainwise IP-100,2013-01-30 02:45:00,
2013-01-29 19:50:00,40.6,23.0,27.45,WNW,292,0.0,3.7,47,0.00,,,0.00,Rainwise IP-100,2013-01-30 02:50:00,
2013-01-29 19:55:00,40.3,23.0,27.44,WNW,292,0.0,0.0,48,0.00,,,0.00,Rainwise IP-100,2013-01-30 02:55:00,
2013-01-29 20:00:00,40.0,23.0,27.44,WNW,292,0.0,0.0,48,0.00,,,0.00,Rainwise IP-100,2013-01-30 03:00:00,
2013-01-29 20:05:00,39.8,23.0,27.45,SSW,202,0.0,0.0,48,0.00,,,0.00,Rainwise IP-100,2013-01-30 03:05:00,
2013-01-29 20:10:00,39.8,23.0,27.45,SSW,202,0.0,0.0,49,0.00,,,0.00,Rainwise IP-100,2013-01-30 03:10:00,
2013-01-29 20:15:00,39.5,23.0,27.45,SSW,202,0.0,1.9,49,0.00,,,0.00,Rainwise IP-100,2013-01-30 03:15:00,
2013-01-29 20:20:00,39.0,23.0,27.46,SSW,202,0.0,0.0,50,0.00,,,0.00,Rainwise IP-100,2013-01-30 03:20:00,
2013-01-29 20:25:00,38.4,23.0,27.46,SSW,202,0.0,1.4,51,0.00,,,0.00,Rainwise IP-100,2013-01-30 03:25:00,
2013-01-29 20:30:00,38.1,23.0,27.46,SSW,202,0.0,0.0,52,0.00,,,0.00,Rainwise IP-100,2013-01-30 03:30:00,
2013-01-29 20:35:00,37.8,23.0,27.46,SSW,202,1.6,1.6,53,0.00,,,0.00,Rainwise IP-100,2013-01-30 03:35:00,
2013-01-29 20:40:00,37.1,23.0,27.46,SSW,202,0.0,1.9,54,0.00,,,0.00,Rainwise IP-100,2013-01-30 03:40:00,
2013-01-29 20:45:00,36.9,23.0,27.46,SSW,202,1.2,1.9,55,0.00,,,0.00,Rainwise IP-100,2013-01-30 03:45:00,
2013-01-29 20:50:00,37.4,23.0,27.45,SSW,202,1.6,2.1,55,0.00,,,0.00,Rainwise IP-100,2013-01-30 03:50:00,
2013-01-29 20:55:00,38.2,23.0,27.46,SSW,202,0.0,2.8,54,0.00,,,0.00,Rainwise IP-100,2013-01-30 03:55:00,
2013-01-29 21:00:00,39.2,24.0,27.46,WSW,247,1.9,3.7,53,0.00,,,0.00,Rainwise IP-100,2013-01-30 04:00:00,
2013-01-29 21:05:00,39.9,24.0,27.46,WSW,247,0.0,3.3,51,0.00,,,0.00,Rainwise IP-100,2013-01-30 04:05:00,
2013-01-29 21:10:00,40.2,24.0,27.46,WSW,247,0.0,2.3,51,0.00,,,0.00,Rainwise IP-100,2013-01-30 04:10:00,
2013-01-29 21:15:00,40.3,24.0,27.46,WSW,247,0.0,2.3,51,0.00,,,0.00,Rainwise IP-100,2013-01-30 04:15:00,
2013-01-29 21:20:00,40.2,24.0,27.47,WSW,247,0.0,2.3,51,0.00,,,0.00,Rainwise IP-100,2013-01-30 04:20:00,
2013-01-29 21:25:00,39.9,24.0,27.47,WSW,247,0.0,2.8,51,0.00,,,0.00,Rainwise IP-100,2013-01-30 04:25:00,
2013-01-29 21:30:00,39.6,24.0,27.47,SW,225,0.0,1.4,52,0.00,,,0.00,Rainwise IP-100,2013-01-30 04:30:00,
2013-01-29 21:35:00,39.4,24.0,27.47,SW,225,0.0,0.0,53,0.00,,,0.00,Rainwise IP-100,2013-01-30 04:35:00,
2013-01-29 21:40:00,39.0,24.0,27.47,SW,225,0.0,0.0,54,0.00,,,0.00,Rainwise IP-100,2013-01-30 04:40:00,
2013-01-29 21:45:00,38.4,24.0,27.47,SW,225,0.0,0.0,55,0.00,,,0.00,Rainwise IP-100,2013-01-30 04:45:00,
2013-01-29 21:50:00,37.9,24.0,27.47,SW,225,0.0,0.0,57,0.00,,,0.00,Rainwise IP-100,2013-01-30 04:50:00,
2013-01-29 21:55:00,37.4,24.0,27.47,SW,225,0.0,0.0,57,0.00,,,0.00,Rainwise IP-100,2013-01-30 04:55:00,
2013-01-29 22:00:00,37.1,24.0,27.47,SW,225,0.0,0.0,58,0.00,,,0.00,Rainwise IP-100,2013-01-30 05:00:00,
2013-01-29 22:02:00,37.0,24.0,27.47,SW,225,0.0,0.0,59,0.00,,,0.00,Rainwise IP-100,2013-01-30 05:02:00,
2013-01-29 22:03:00,36.8,24.0,27.47,SW,225,0.0,0.0,59,0.00,,,0.00,Rainwise IP-100,2013-01-30 05:03:00,
2013-01-29 22:08:00,36.4,24.0,27.47,SW,225,0.0,0.0,60,0.00,,,0.00,Rainwise IP-100,2013-01-30 05:08:00,
2013-01-29 22:13:00,36.1,24.0,27.48,SW,225,0.0,0.0,60,0.00,,,0.00,Rainwise IP-100,2013-01-30 05:13:00,
2013-01-29 22:18:00,36.1,24.0,27.47,SW,225,0.0,0.0,61,0.00,,,0.00,Rainwise IP-100,2013-01-30 05:18:00,
2013-01-29 22:23:00,36.0,24.0,27.47,SW,225,0.0,0.0,61,0.00,,,0.00,Rainwise IP-100,2013-01-30 05:23:00,
2013-01-29 22:28:00,35.9,24.0,27.48,SW,225,0.0,0.0,62,0.00,,,0.00,Rainwise IP-100,2013-01-30 05:28:00,
2013-01-29 22:33:00,35.8,24.0,27.48,SW,225,0.0,0.0,62,0.00,,,0.00,Rainwise IP-100,2013-01-30 05:33:00,
2013-01-29 22:38:00,35.4,24.0,27.48,SW,225,0.0,1.2,63,0.00,,,0.00,Rainwise IP-100,2013-01-30 05:38:00,
2013-01-29 22:43:00,35.1,24.0,27.48,SW,225,0.0,0.0,64,0.00,,,0.00,Rainwise IP-100,2013-01-30 05:43:00,
2013-01-29 22:48:00,34.8,24.0,27.48,SW,225,0.0,0.0,65,0.00,,,0.00,Rainwise IP-100,2013-01-30 05:48:00,
2013-01-29 22:53:00,34.2,24.0,27.49,SW,225,0.0,0.0,67,0.00,,,0.00,Rainwise IP-100,2013-01-30 05:53:00,
2013-01-29 22:58:00,33.5,26.0,27.49,SW,225,0.0,0.0,69,0.00,,,0.00,Rainwise IP-100,2013-01-30 05:58:00,
2013-01-29 23:03:00,33.0,24.0,27.48,SW,225,0.0,0.0,70,0.00,,,0.00,Rainwise IP-100,2013-01-30 06:03:00,
2013-01-29 23:08:00,32.8,24.0,27.49,SW,225,0.0,0.0,70,0.00,,,0.00,Rainwise IP-100,2013-01-30 06:08:00,
2013-01-29 23:13:00,32.8,24.0,27.49,NNW,337,0.0,2.8,70,0.00,,,0.00,Rainwise IP-100,2013-01-30 06:13:00,
2013-01-29 23:18:00,33.1,24.0,27.49,NNW,337,0.0,2.3,71,0.00,,,0.00,Rainwise IP-100,2013-01-30 06:18:00,
2013-01-29 23:23:00,33.3,24.0,27.50,NNW,337,1.2,0.0,71,0.00,,,0.00,Rainwise IP-100,2013-01-30 06:23:00,
2013-01-29 23:28:00,33.2,24.0,27.50,NNW,337,1.4,1.4,71,0.00,,,0.00,Rainwise IP-100,2013-01-30 06:28:00,
2013-01-29 23:33:00,33.2,24.0,27.50,North,360,0.0,2.8,71,0.00,,,0.00,Rainwise IP-100,2013-01-30 06:33:00,
2013-01-29 23:38:00,33.3,24.0,27.49,North,360,0.0,2.8,70,0.00,,,0.00,Rainwise IP-100,2013-01-30 06:38:00,
2013-01-29 23:43:00,33.5,26.0,27.49,North,360,0.0,1.4,70,0.00,,,0.00,Rainwise IP-100,2013-01-30 06:43:00,
2013-01-29 23:48:00,34.0,26.0,27.49,NNW,337,0.0,2.8,69,0.00,,,0.00,Rainwise IP-100,2013-01-30 06:48:00,
2013-01-29 23:53:00,34.5,26.0,27.49,NNW,337,0.0,0.0,68,0.00,,,0.00,Rainwise IP-100,2013-01-30 06:53:00,
2013-01-29 23:58:00,34.6,26.0,27.49,NNW,337,0.0,1.6,68,0.00,,,0.00,Rainwise IP-100,2013-01-30 06:58:00,